Weather in Kosolapovo

Russia / Kurgan Oblast     54°29′57″N   63°59′39″E
temp.,
°C
wind,
m/s
gust,
m/s
humid.,
%
clouds,
%
prec.,
mm/h
press.,
hPa
HPBL,
m
11 april, sun
sun1123:00+2sse3696100 0.0 1039107
02:00+2sse3598100 0.0 1039115
05:00+1s349422 0.0 103961
08:000s3510089 0.0 1040145
11:00+1s4610097 0.0 1040219
14:00+5s478295 0.0 1039338
17:00+6ssw3782100 0.0 1038235
20:00+3ssw468851 0.0 103781
12 april, mon
mon1223:00+1ssw47865 0.0 1037100
02:00+1sw48865 0.0 1036125
05:00+1sw478369 0.0 1036106
08:00+3wsw378154 0.0 1036177
11:00+9w347261 0.0 1036293
14:00+12nw237088 0.0 1035492
17:00+12n4483100 0.0 1035509
20:00+8n489585 0.0 1037266
13 april, tue
tue1323:00+6nne3791100 0.0 1038155
02:00+6nne3690100 0.0 1039119
05:00+4nne3689100 0.0 1040106
08:00+5ne36760 0.0 1041189
11:00+9ne34620 0.0 1041579
14:00+12e22490 0.0 1041946
17:00+13se22450 0.0 1039926
20:00+10sse11610 0.0 103910
14 april, wed
wed1423:00+7s33780 0.0 103945
02:00+6ssw33830 0.0 103843
05:00+4sw34875 0.0 103744
08:00+6sw358212 0.0 1036165
11:00+12sw445714 0.0 1035527
14:00+15sw454113 0.0 1033826
17:00+16wsw44375 0.0 1031882
20:00+12wsw23545 0.0 103015
15 april, thu
thu1523:00+9sw33635 0.0 102927
02:00+7wsw347124 0.0 102940
05:00+6wsw33747 0.0 102830
08:00+8wsw35705 0.0 1028133
11:00+14wsw34465 0.0 1026469
14:00+17wsw44326 0.0 1024833
17:00+18wsw34305 0.0 1022960
20:00+13wsw33465 0.0 102115